Location: Newark
(40.3500°N, 15.2333°E)
Time: 06:40:25
(UTC+00:00)

Vanguard 2 - Pass Details

Date: 31 January 2020
Orbit: 552 x 2939 km, 32.9° (Epoch: 27 February)

Event Time Altitude Azimuth Distance (km) Brightness Sun altitude
Rises 04:40:02 0° 192° (SSW) 6,641 12.3 -17.3°
Reaches altitude 10° 04:46:35 10° 177° (S) 5,749 12.1 -16.1°
Maximum altitude 04:56:59 19° 140° (SE) 4,943 12.3 -14.1°
Drops below altitude 10° 05:06:31 10° 104° (ESE) 5,279 13.3 -12.3°
Sets 05:11:59 0° 88° (E) 5,941 13.8 -11.3°
